Regional Weather Roundup
Issued by NWS Green Bay, WI

Home | Current Version | Previous Version | Graphics & Text | Print | Product List | Glossary Off
Versions: 1 2 3 4 5 6 7 8 9 10 11 12 13 14 15 16 17 18 19 20 21 22 23 24 25 26 27 28 29 30 31 32 33 34 35 36 37 38 39 40 41 42 43 44 45 46 47 48 49 50

000
ASUS43 KGRB 241011
RWRGRB

NORTH-CENTRAL AND NORTHEAST WISCONSIN REGIONAL WEATHER ROUNDUP
NATIONAL WEATHER SERVICE GREEN BAY WI
500 AM CDT SAT JUN 24 2017

WIZ005-009-010>012-018-019-241100-
NORTH CENTRAL WISCONSIN

CITY           SKY/WX    TMP DP  RH WIND       PRES   REMARKS
IRONWOOD       CLOUDY    55  51  86 W10       29.85R
MANITOWISH WTR CLOUDY    54  53  96 NW6       29.85R
ARBOR VITAE    CLOUDY    57  52  83 NW5       29.84R
EAGLE RIVER    CLOUDY    55  49  80 W6        29.83R
LAND O LAKES   CLOUDY    56  51  82 NW5G16    29.84R
RHINELANDER    CLOUDY    55  52  89 W8        29.85R
PHILLIPS       CLOUDY    53  50  89 W3        29.87R
ANTIGO         CLOUDY    54  53  97 W6        29.86R
TOMAHAWK       NOT AVBL
MERRILL        CLOUDY    55  53  92 W5        29.87R
$$

WIZ013-073-241100-
NORTHEAST WISCONSIN

CITY           SKY/WX    TMP DP  RH WIND       PRES   REMARKS
IRON MOUNTAIN  MOCLDY    53  48  83 NW3       29.80R
MARINETTE      CLOUDY    56  52  86 VRB3      29.81R
OCONTO         CLOUDY    56  53  88 W6        29.81R
$$

WIZ017-030-035>037-045-241100-
CENTRAL WISCONSIN

CITY           SKY/WX    TMP DP  RH WIND       PRES   REMARKS
MEDFORD        CLOUDY    52  49  90 W8        29.89R
WAUSAU         MOCLDY    56  52  86 W10       29.86R
MOSINEE        MOCLDY    54  52  94 W10       29.89R
MARSHFIELD     MOCLDY    54  49  83 NW10      29.89R
WISC RAPIDS    CLOUDY    57  51  80 NW9       29.90R
STEVENS POINT  CLOUDY    56  53  92 NW5       29.88S
WAUPACA        MOCLDY    60  56  84 W6        29.87R
SHAWANO        CLOUDY    60  54  82 W7        29.84R
CLINTONVILLE   CLOUDY    59  52  77 NW9       29.85R
WAUTOMA        CLOUDY    58  54  86 W6        29.89R
$$

WIZ038-039-048-051-241100-
FOX VALLEY

CITY           SKY/WX    TMP DP  RH WIND       PRES   REMARKS
NWS GREEN BAY  CLOUDY    60  55  83 W12       29.84R
APPLETON       CLOUDY    57  50  77 W9        29.84R
OSHKOSH        CLOUDY    60  53  77 W10       29.86R
FOND DU LAC    MOCLDY    59  52  77 W9        29.87R
$$

WIZ022-050-052-241100-
EAST CENTRAL WISCONSIN

CITY           SKY/WX    TMP DP  RH WIND       PRES   REMARKS
EPHRAIM        CLOUDY    58  50  75 NW9       29.79R
WASHINGTON ISL CLOUDY    58  50  75 NW9       29.78R
STURGEON BAY     N/A     60  53  77 W8          N/A
MANITOWOC      CLOUDY    61  53  75 W9        29.83R
SHEBOYGAN      CLOUDY    60  55  83 W8        29.84R
$$

LMZ563-521-522-541>543-241100-
LAKESHORE

STATION/POSITION TIME  TEMP    WIND        PRES    VSBY  WAVE
                       AIR SEA DIR/SP/G                  HT/PER
                 (UTC) (F)     (DEG/KT/KT) (MB)    (MI)  (FT/S)
SHEBOYGAN LKSHOR 1000   61     280/ 15/ 18 1009.8R
KEWAUNEE LKSHORE 0948   59     290/  6/ 10 1009.2R
NORTHPORT PIER   0940   61     300/ 12/ 17 1008.8R
N MID LAKE BUOY  0950   58 56  270/  6/  8 1008.9R         1
S GREEN BAY BUOY 1000   60     280/ 14/ 16 1009.3
CHAMBERS ISLAND  0940   58     290/  5/ 10 1008.5R
MENOMINEE LKSHOR 0948          270/  6/  9 1008.5R
$$



USA.gov is the U.S. government's official web portal to all federal, state and local government web resources and services.